When you browse on this site, cookies collect data to enhance your experience and personalize the content and advertising you see.
Visit our Privacy Policy to learn more. By continuing to use the site, you agree to this use of cookies and data.
  • In Hungary
  • List of Countries
  • For 7 days
  • Water Temperature
  • Weather Map
  • News
  • Weather Widgets
  • user-avatar
    Login

    Hourly Weather Szesciwloki

    Today, 14 December, Saturday

    Time Temperature Precipitation Wind Pressure Humidity
    00:00 -2°C° 0 mm 7 mps 724 mmHg 86%
    01:00 -2°C° 0 mm 7 mps 724 mmHg 87%
    02:00 -2°C° 0 mm 6 mps 724 mmHg 88%
    03:00 -1°C° 0 mm 6 mps 724 mmHg 88%
    04:00 -1°C° 0 mm 6 mps 724 mmHg 88%
    05:00 -1°C° 0 mm 7 mps 724 mmHg 88%
    06:00 -1°C° 0 mm 7 mps 724 mmHg 88%
    07:00 -1°C° 0 mm 7 mps 724 mmHg 88%
    08:00 -1°C° 0 mm 7 mps 724 mmHg 89%
    09:00 0°C° 0 mm 7 mps 724 mmHg 87%
    10:00 0°C° 0 mm 7 mps 724 mmHg 86%
    11:00 0°C° 0 mm 8 mps 725 mmHg 85%
    12:00 0°C° 0 mm 8 mps 725 mmHg 85%
    13:00 0°C° 0 mm 7 mps 724 mmHg 84%
    14:00 +2°C° 0 mm 7 mps 724 mmHg 83%
    15:00 +2°C° 0.1 mm 7 mps 724 mmHg 85%
    16:00 +1°C° 0.1 mm 6 mps 724 mmHg 86%
    17:00 +1°C° 0.1 mm 6 mps 724 mmHg 88%
    18:00 +1°C° 0 mm 6 mps 724 mmHg 88%
    19:00 +1°C° 0 mm 5 mps 724 mmHg 88%
    20:00 +1°C° 0 mm 5 mps 724 mmHg 87%
    21:00 +1°C° 0.1 mm 5 mps 724 mmHg 89%
    22:00 +1°C° 0.1 mm 6 mps 724 mmHg 91%
    23:00 +1°C° 0.1 mm 6 mps 724 mmHg 93%

    Tomorrow, 15 December, Sunday

    Time Temperature Precipitation Wind Pressure Humidity
    00:00 +1°C° 0.7 mm 6 mps 724 mmHg 93%
    01:00 -1°C° 0.7 mm 6 mps 724 mmHg 93%
    02:00 -1°C° 0.7 mm 7 mps 725 mmHg 94%
    03:00 -1°C° 0 mm 7 mps 725 mmHg 90%
    04:00 -1°C° 0 mm 6 mps 726 mmHg 86%
    05:00 +1°C° 0 mm 6 mps 727 mmHg 83%
    06:00 -1°C° 0 mm 6 mps 727 mmHg 83%
    07:00 -2°C° 0 mm 6 mps 728 mmHg 83%
    08:00 -2°C° 0 mm 6 mps 729 mmHg 83%
    09:00 -2°C° 0 mm 6 mps 729 mmHg 84%
    10:00 -2°C° 0 mm 6 mps 730 mmHg 85%
    11:00 -2°C° 0 mm 6 mps 730 mmHg 86%
    12:00 -1°C° 0 mm 6 mps 730 mmHg 84%
    13:00 0°C° 0 mm 5 mps 730 mmHg 81%
    14:00 +1°C° 0 mm 5 mps 730 mmHg 79%
    15:00 +1°C° 0.3 mm 5 mps 730 mmHg 82%
    16:00 +1°C° 0.3 mm 6 mps 729 mmHg 84%
    17:00 -1°C° 0.3 mm 6 mps 729 mmHg 87%
    18:00 +1°C° 0.9 mm 6 mps 729 mmHg 88%
    19:00 +2°C° 0.9 mm 7 mps 729 mmHg 88%
    20:00 +3°C° 0.9 mm 7 mps 729 mmHg 89%
    21:00 +2°C° 0 mm 7 mps 730 mmHg 83%
    22:00 +1°C° 0 mm 8 mps 731 mmHg 76%
    23:00 0°C° 0 mm 8 mps 732 mmHg 70%

    Day after tomorrow, 16 December, Monday

    Time Temperature Precipitation Wind Pressure Humidity
    00:00 0°C° 0 mm 8 mps 733 mmHg 72%
    01:00 -1°C° 0 mm 8 mps 734 mmHg 74%
    02:00 -1°C° 0 mm 7 mps 735 mmHg 76%
    03:00 -1°C° 0 mm 7 mps 735 mmHg 77%
    04:00 -2°C° 0 mm 6 mps 736 mmHg 78%
    05:00 -1°C° 0 mm 5 mps 736 mmHg 79%
    06:00 -1°C° 0 mm 5 mps 737 mmHg 81%
    07:00 -2°C° 0 mm 5 mps 737 mmHg 82%
    08:00 -2°C° 0 mm 4 mps 737 mmHg 84%
    09:00 -1°C° 0 mm 5 mps 738 mmHg 82%
    10:00 -1°C° 0 mm 5 mps 739 mmHg 80%
    11:00 0°C° 0 mm 5 mps 739 mmHg 78%
    12:00 0°C° 0 mm 4 mps 739 mmHg 76%
    13:00 0°C° 0 mm 4 mps 739 mmHg 74%
    14:00 +2°C° 0 mm 3 mps 739 mmHg 73%
    15:00 +1°C° 0 mm 3 mps 739 mmHg 77%
    16:00 +1°C° 0 mm 3 mps 739 mmHg 81%
    17:00 0°C° 0 mm 3 mps 739 mmHg 85%
    18:00 0°C° 0 mm 3 mps 739 mmHg 87%
    19:00 0°C° 0 mm 4 mps 739 mmHg 89%
    20:00 0°C° 0 mm 4 mps 739 mmHg 91%
    21:00 0°C° 0 mm 4 mps 738 mmHg 91%
    22:00 +1°C° 0 mm 4 mps 738 mmHg 90%
    23:00 +1°C° 0 mm 4 mps 738 mmHg 90%

    17 December, Tuesday

    Time Temperature Precipitation Wind Pressure Humidity
    00:00 +1°C° 0 mm 4 mps 738 mmHg 89%
    01:00 +1°C° 0 mm 4 mps 738 mmHg 89%
    02:00 +1°C° 0 mm 4 mps 737 mmHg 89%
    03:00 +1°C° 0 mm 4 mps 737 mmHg 89%
    04:00 +1°C° 0 mm 4 mps 737 mmHg 89%
    05:00 +1°C° 0 mm 4 mps 737 mmHg 89%
    06:00 +1°C° 0 mm 4 mps 737 mmHg 89%
    07:00 +1°C° 0 mm 4 mps 737 mmHg 89%
    08:00 +1°C° 0 mm 4 mps 737 mmHg 90%
    09:00 +1°C° 0 mm 4 mps 737 mmHg 89%
    10:00 +3°C° 0 mm 4 mps 737 mmHg 88%
    11:00 +3°C° 0 mm 3 mps 737 mmHg 87%
    12:00 +3°C° 0 mm 3 mps 737 mmHg 86%
    13:00 +4°C° 0 mm 3 mps 737 mmHg 85%
    14:00 +4°C° 0 mm 3 mps 736 mmHg 84%
    15:00 +3°C° 0 mm 4 mps 736 mmHg 86%
    16:00 +3°C° 0 mm 4 mps 736 mmHg 88%
    17:00 +1°C° 0 mm 4 mps 736 mmHg 89%
    18:00 +1°C° 0 mm 4 mps 736 mmHg 90%
    19:00 +2°C° 0 mm 3 mps 736 mmHg 91%
    20:00 +2°C° 0 mm 3 mps 736 mmHg 91%
    21:00 +2°C° 0 mm 3 mps 736 mmHg 91%
    22:00 +3°C° 0 mm 2 mps 736 mmHg 91%
    23:00 +3°C° 0 mm 2 mps 736 mmHg 91%

    18 December, Wednesday

    Time Temperature Precipitation Wind Pressure Humidity
    00:00 +2°C° 0 mm 3 mps 736 mmHg 91%
    01:00 +2°C° 0 mm 3 mps 736 mmHg 91%
    02:00 +2°C° 0 mm 3 mps 736 mmHg 91%
    03:00 +2°C° 0 mm 3 mps 735 mmHg 91%
    04:00 +2°C° 0 mm 3 mps 735 mmHg 91%
    05:00 +2°C° 0 mm 3 mps 735 mmHg 91%
    06:00 +2°C° 0 mm 3 mps 735 mmHg 92%
    07:00 +2°C° 0 mm 3 mps 735 mmHg 93%
    08:00 +2°C° 0 mm 3 mps 735 mmHg 93%
    09:00 +2°C° 0 mm 3 mps 735 mmHg 94%
    10:00 +2°C° 0 mm 3 mps 735 mmHg 94%
    11:00 +3°C° 0 mm 3 mps 736 mmHg 95%
    12:00 +3°C° 0 mm 3 mps 736 mmHg 93%
    13:00 +3°C° 0 mm 3 mps 736 mmHg 91%
    14:00 +4°C° 0 mm 3 mps 736 mmHg 90%
    15:00 +3°C° 0 mm 3 mps 736 mmHg 90%
    16:00 +3°C° 0 mm 3 mps 736 mmHg 91%
    17:00 +2°C° 0 mm 3 mps 737 mmHg 91%
    18:00 +2°C° 0 mm 3 mps 737 mmHg 92%
    19:00 +3°C° 0 mm 2 mps 737 mmHg 92%
    20:00 +3°C° 0 mm 2 mps 737 mmHg 93%
    21:00 +3°C° 0 mm 2 mps 737 mmHg 93%
    22:00 +2°C° 0 mm 2 mps 737 mmHg 94%
    23:00 +2°C° 0 mm 2 mps 738 mmHg 95%

    19 December, Thursday

    Time Temperature Precipitation Wind Pressure Humidity
    00:00 +2°C° 0 mm 2 mps 738 mmHg 96%
    01:00 +2°C° 0 mm 2 mps 738 mmHg 96%
    02:00 +2°C° 0 mm 2 mps 738 mmHg 97%
    03:00 +2°C° 0 mm 2 mps 738 mmHg 96%
    04:00 +3°C° 0 mm 2 mps 738 mmHg 95%
    05:00 +3°C° 0 mm 2 mps 738 mmHg 94%
    06:00 +2°C° 0 mm 2 mps 738 mmHg 93%
    07:00 +2°C° 0 mm 2 mps 738 mmHg 92%
    08:00 +2°C° 0 mm 2 mps 738 mmHg 90%
    09:00 +2°C° 0 mm 3 mps 738 mmHg 88%
    10:00 +2°C° 0 mm 3 mps 738 mmHg 86%
    11:00 +2°C° 0 mm 3 mps 739 mmHg 84%
    12:00 +2°C° 0 mm 3 mps 739 mmHg 84%
    13:00 +3°C° 0 mm 3 mps 738 mmHg 84%
    14:00 +3°C° 0 mm 3 mps 738 mmHg 84%
    15:00 +2°C° 0 mm 3 mps 739 mmHg 87%
    16:00 +1°C° 0 mm 3 mps 739 mmHg 90%
    17:00 +1°C° 0 mm 2 mps 739 mmHg 94%
    18:00 +1°C° 0 mm 2 mps 739 mmHg 94%
    19:00 +1°C° 0 mm 2 mps 739 mmHg 94%
    20:00 -1°C° 0 mm 2 mps 740 mmHg 95%
    21:00 +1°C° 0 mm 1 mps 740 mmHg 94%
    22:00 +1°C° 0 mm 1 mps 740 mmHg 93%
    23:00 0°C° 0 mm 0 mps 740 mmHg 92%
    Show more